Weather History for KAKO - August, 2013

Change the Weather History Date:

Saturday, August 17, 2013

  Actual Average Record
Temperature  
Mean Temperature 72 °F 72 °F  
Max Temperature 84 °F 86 °F 98 °F (1939)
Min Temperature 59 °F 59 °F 41 °F (1960)
Degree Days  
Heating Degree Days 0    
Month to date heating degree days 2  
Cooling Degree Days 7    
Month to date cooling degree days 98  
Growing Degree Days 22 (Base 50)    
Moisture  
Dew Point 62 °F    
Average Humidity 72    
Maximum Humidity 100    
Minimum Humidity 44    
Precipitation  
Precipitation 0.01 in 0.07 in 2.49 in (1949)
Month to date precipitation 1.85 1.44  
Year to date precipitation 10.86 12.63  
Sea Level Pressure  
Sea Level Pressure 30.02 in    
Wind  
Wind Speed 11 mph (SSE)    
Max Wind Speed 23 mph    
Max Gust Speed 29 mph    
Visibility 6 miles    
Events Fog    
T = Trace of Precipitation, MM = Missing Value Source: NWS Daily Summary

Daily Weather History Graph

Daily Weather History Graph

Search for Another Location

Airport or City:

Trip Planner

Search our weather history database for the weather conditions in past years. The results will help you decide how hot, cold, wet, or windy it might be!

Date:

Astronomy

Aug. 17, 2013 Rise Set
Actual Time 6:06 AM MDT 7:46 PM MDT
Civil Twilight 5:37 AM MDT 8:15 PM MDT
Nautical Twilight 5:02 AM MDT 8:50 PM MDT
Astronomical Twilight 4:25 AM MDT 9:27 PM MDT
Moon 5:04 PM MDT (8/17) 2:11 AM MDT (8/17)
Length of Visible Light 14h 38m
Length of Day
13h 40m
Waxing Gibbous, 85% of the Moon is Illuminated
Aug 17
Waxing Gibbous
Aug 20
Full
Aug 28
Last Quarter
Sep 5
New
Sep 12
First Quarter

Hourly Weather History & Observations

Time (MDT) Temp. Heat Index Dew Point Humidity Pressure Visibility Wind Dir Wind Speed Gust Speed Precip Events Conditions
12:53 AM 64.0 °F - 63.0 °F 96% 30.05 in 7.0 mi SSE 10.4 mph - N/A   Clear
1:53 AM 63.0 °F - 62.1 °F 97% 30.03 in 3.0 mi SSE 9.2 mph - N/A   Clear
2:11 AM 62.6 °F - 62.6 °F 100% 30.17 in 2.5 mi SE 8.1 mph - N/A   Partly Cloudy
2:20 AM 62.6 °F - 62.6 °F 100% 30.17 in 1.8 mi SE 8.1 mph - N/A   Mostly Cloudy
2:25 AM 62.6 °F - 62.6 °F 100% 30.17 in 1.0 mi SE 8.1 mph - N/A   Mist
2:32 AM 62.6 °F - 62.6 °F 100% 30.17 in 0.5 mi SE 9.2 mph - N/A Fog Fog
2:53 AM 62.1 °F - 62.1 °F 100% 30.01 in 0.2 mi SSE 10.4 mph - N/A Fog Fog
3:53 AM 63.0 °F - 63.0 °F 100% 30.00 in 0.2 mi South 11.5 mph - N/A Fog Fog
4:53 AM 62.1 °F - 62.1 °F 100% 29.98 in 0.2 mi South 8.1 mph - N/A Fog Fog
5:53 AM 60.1 °F - 59.0 °F 96% 29.99 in 0.2 mi South 9.2 mph - 0.01 in Fog Fog
6:53 AM 59.0 °F - 59.0 °F 100% 30.01 in 0.2 mi SSE 5.8 mph - N/A Fog Fog
7:18 AM 60.8 °F - 59.0 °F 94% 30.16 in 1.0 mi SSE 6.9 mph - N/A   Mist
7:27 AM 60.8 °F - 59.0 °F 94% 30.16 in 1.2 mi South 6.9 mph - N/A   Mostly Cloudy
7:43 AM 60.8 °F - 60.8 °F 100% 30.16 in 1.8 mi South 6.9 mph - N/A   Mostly Cloudy
7:50 AM 60.8 °F - 60.8 °F 100% 30.16 in 3.0 mi South 8.1 mph - N/A   Scattered Clouds
7:53 AM 60.1 °F - 60.1 °F 100% 30.02 in 3.0 mi South 8.1 mph - N/A   Scattered Clouds
8:53 AM 66.0 °F - 63.0 °F 90% 30.02 in 9.0 mi South 10.4 mph - N/A   Clear
9:53 AM 71.1 °F - 63.0 °F 75% 30.01 in 10.0 mi SE 8.1 mph - N/A   Clear
10:53 AM 73.9 °F - 62.1 °F 66% 30.01 in 10.0 mi SSE 9.2 mph - N/A   Clear
11:53 AM 77.0 °F - 64.0 °F 64% 29.99 in 10.0 mi SSE 9.2 mph 16.1 mph N/A   Clear
12:53 PM 80.1 °F 81.2 °F 62.1 °F 54% 29.97 in 10.0 mi SSE 16.1 mph 23.0 mph N/A   Clear
1:53 PM 82.9 °F 83.2 °F 60.1 °F 46% 29.95 in 10.0 mi SSE 18.4 mph 25.3 mph N/A   Clear
2:53 PM 84.0 °F 84.4 °F 61.0 °F 46% 29.92 in 10.0 mi SE 16.1 mph 26.5 mph N/A   Clear
3:53 PM 84.0 °F 84.0 °F 60.1 °F 44% 29.91 in 10.0 mi SSE 20.7 mph 26.5 mph N/A   Clear
4:53 PM 82.9 °F 82.8 °F 59.0 °F 44% 29.90 in 10.0 mi SE 15.0 mph 26.5 mph N/A   Clear
5:53 PM 81.0 °F 81.6 °F 60.1 °F 49% 29.92 in 10.0 mi SE 18.4 mph 27.6 mph N/A   Clear
6:53 PM 78.1 °F - 61.0 °F 56% 29.93 in 10.0 mi SE 17.3 mph 24.2 mph N/A   Clear
7:53 PM 73.0 °F - 63.0 °F 71% 29.95 in 10.0 mi SSE 13.8 mph - N/A   Clear
8:53 PM 70.0 °F - 64.0 °F 81% 29.96 in 10.0 mi SE 16.1 mph - N/A   Clear
9:53 PM 68.0 °F - 64.9 °F 90% 29.97 in 10.0 mi SSE 17.3 mph 23.0 mph N/A   Clear
10:53 PM 66.9 °F - 64.9 °F 93% 29.97 in 8.0 mi SSE 20.7 mph 26.5 mph N/A   Clear
11:53 PM 66.0 °F - 64.0 °F 93% 29.96 in 6.0 mi South 17.3 mph 24.2 mph N/A   Clear